Location: Unspecified
(41.5000°N, 0.0000°E)
Time: 17:32:07
(UTC+00:00)

Vanguard 3 - Pass Details

Date: 18 June 2019
Orbit: 508 x 3263 km, 33.3° (Epoch: 23 August)

Event Time Altitude Azimuth Distance (km) Brightness Sun altitude
Rises 14:50:17 0° 257° (WSW) 4,390 11.5 50.5°
Reaches altitude 10° 14:54:06 10° 250° (WSW) 2,967 10.9 49.8°
Maximum altitude 15:00:06 35° 186° (S) 1,224 8.7 48.7°
Drops below altitude 10° 15:04:06 10° 120° (ESE) 1,962 8.9 48.0°
Sets 15:06:09 0° 110° (ESE) 2,728 9.5 47.6°
